Voltar ao catálogo

STARLINK-37209

AtivoComunicaçõesVLEO
NORAD 69187·PAYLOAD·🇺🇸 United States

Lançado May 25, 2026 de Cape Canaveral Space Force Station

Loading…

Próximas Passagens (próximas 24 horas)

TLE

AtualizadoSource: CelesTrak SupGP

Época: Sep 14, 2026, 21:04 UTC

1 69187C 26114F   26257.87826389 -.00000254  00000+0 -74945-5 0  2571
2 69187  53.1560 140.2388 0001322  83.8736 144.2142 15.34426664    12

Acompanhe STARLINK-37209 em tempo real com AllMySat

Download on the App Store